EW0680 Weather Reports


time (UTC)temp
C
wind
direction
speed
KPH
gust
KPH
rain 1hr
cm
rain 24hr
cm
rain mn
cm
humidity
%
barometer
mb
20260508184611 17 279 0.0 0.0 0.00 0.00 0.00 55 1010.6
20260508184502 17 296 0.0 0.0 0.00 0.00 0.00 55 1010.6
20260508183006 18 300 0.0 0.0 0.00 0.00 0.00 54 1010.7
20260508181508 17 20 0.0 0.0 0.00 0.00 0.00 58 1010.8
20260508180012 17 314 0.0 0.0 0.00 0.00 0.00 59 1011.1
20260508174530 17 350 0.0 0.0 0.00 0.00 0.00 58 1011.3
20260508173018 17 330 0.0 0.0 0.00 0.00 0.00 56 1011.7
20260508171525 18 292 0.0 0.0 0.00 0.00 0.00 57 1011.8
20260508170032 18 58 0.0 0.0 0.00 0.00 0.00 60 1012.0
20260508164526 18 313 0.0 0.0 0.00 0.00 0.00 56 1012.3
20260508163046 18 242 0.0 0.0 0.00 0.00 0.00 58 1012.5
20260508161530 17 292 0.0 0.0 0.00 0.00 0.00 59 1012.7
20260508160037 17 294 0.0 0.0 0.00 0.00 0.00 59 1012.8
20260508154548 17 296 0.0 0.0 0.00 0.00 0.00 59 1012.7
20260508153046 17 252 0.0 0.0 0.00 0.00 0.00 59 1012.8
20260508151535 16 129 0.0 0.0 0.00 0.00 0.00 63 1013.0
20260508150032 15 257 0.0 0.0 0.00 0.00 0.00 63 1013.2
20260508144536 15 312 0.0 0.0 0.00 0.00 0.00 63 1013.4
20260508143033 14 303 0.0 0.0 0.00 0.00 0.00 63 1013.5
20260508141546 14 306 0.0 0.0 0.00 0.00 0.00 66 1013.5
20260508140048 13 96 0.0 0.0 0.00 0.00 0.00 65 1013.6
20260508134550 12 265 0.0 0.0 0.00 0.00 0.00 68 1013.8
20260508133050 11 308 0.0 4.8 0.00 0.00 0.00 69 1014.0
20260508130018 11 302 0.0 0.0 0.00 0.00 0.00 73 1013.9
20260508124518 10 289 0.0 4.8 0.00 0.00 0.00 73 1013.6
20260508123022 10 292 0.0 0.0 0.00 0.00 0.00 76 1013.7
20260508121530 9 292 0.0 0.0 0.00 0.00 0.00 77 1013.7
20260508120034 9 292 0.0 0.0 0.00 0.00 0.00 76 1013.7
20260508114539 8 38 0.0 0.0 0.00 0.00 0.00 79 1013.7
20260508113051 8 129 0.0 0.0 0.00 0.00 0.00 79 1013.4
20260508111535 8 291 0.0 0.0 0.00 0.00 0.00 79 1013.3
20260508110016 8 291 0.0 0.0 0.00 0.00 0.00 79 1013.1
20260508104519 8 291 0.0 0.0 0.00 0.00 0.00 79 1013.1
20260508103026 8 291 0.0 0.0 0.00 0.00 0.00 78 1013.2
20260508101534 8 291 0.0 0.0 0.00 0.00 0.00 79 1013.0
20260508100036 8 291 0.0 4.8 0.00 0.00 0.00 78 1013.0
20260508094550 8 291 0.0 0.0 0.00 0.00 0.00 79 1013.0
20260508093054 8 291 0.0 0.0 0.00 0.00 0.00 78 1013.1
20260508091526 7 294 0.0 3.2 0.00 0.00 0.00 78 1013.1
20260508090044 7 295 0.0 0.0 0.00 0.00 0.00 79 1013.3
20260508084532 7 294 0.0 0.0 0.00 0.00 0.00 78 1013.2
20260508083036 7 294 1.6 4.8 0.00 0.00 0.00 79 1013.3
20260508081517 7 291 0.0 0.0 0.00 0.00 0.00 79 1013.1
20260508080027 7 294 0.0 0.0 0.00 0.00 0.00 80 1013.3
20260508074532 7 294 0.0 0.0 0.00 0.00 0.00 79 1013.3
20260508073021 7 294 0.0 0.0 0.00 0.00 0.00 79 1013.2
20260508071526 7 294 0.0 1.6 0.00 0.00 0.00 78 1013.4
20260508070024 7 296 0.0 0.0 0.00 0.00 0.00 78 1013.5
20260508064523 7 295 0.0 0.0 0.00 0.00 0.00 78 1013.7
20260508063031 7 296 0.0 0.0 0.00 0.00 0.00 78 1013.7
20260508061533 8 286 0.0 0.0 0.00 0.00 0.00 76 1013.7
20260508060041 8 289 0.0 0.0 0.00 0.00 0.00 76 1013.7
20260508054542 8 292 0.0 0.0 0.00 0.00 0.00 75 1013.8
20260508053021 8 287 0.0 0.0 0.00 0.00 0.00 75 1013.7
20260508051559 8 290 0.0 0.0 0.00 0.00 0.00 74 1013.7
20260508051501 8 290 0.0 0.0 0.00 0.00 0.00 74 1013.7
20260508050100 8 294 0.0 0.0 0.00 0.00 0.00 74 1013.7
20260508050002 8 292 0.0 0.0 0.00 0.00 0.00 74 1013.7
20260508044508 8 296 0.0 0.0 0.00 0.00 0.00 75 1013.8
20260508043009 8 312 0.0 0.0 0.00 0.00 0.00 75 1013.7
20260508041513 9 312 0.0 0.0 0.00 0.00 0.00 74 1013.8
20260508040015 9 312 0.0 0.0 0.00 0.00 0.00 75 1013.7
20260508034511 10 312 0.0 0.0 0.00 0.00 0.00 74 1013.8
20260508033018 10 312 0.0 0.0 0.00 0.00 0.00 73 1013.9
20260508031512 10 312 0.0 0.0 0.00 0.00 0.00 73 1013.9
20260508030017 10 312 0.0 0.0 0.00 0.00 0.00 73 1013.9
20260508024522 10 312 0.0 0.0 0.00 0.00 0.00 70 1013.9
20260508023038 10 312 0.0 0.0 0.00 0.00 0.00 66 1013.8
20260508021537 10 312 0.0 0.0 0.00 0.00 0.00 67 1013.7
20260508020039 11 312 0.0 0.0 0.00 0.00 0.00 66 1013.7
20260508014545 11 312 0.0 0.0 0.00 0.00 0.00 68 1013.5
20260508013101 11 312 0.0 0.0 0.00 0.00 0.00 64 1013.5
20260508011602 11 312 0.0 0.0 0.00 0.00 0.00 63 1013.7
20260508010012 11 312 0.0 0.0 0.00 0.00 0.00 59 1013.6
20260508004520 12 312 0.0 0.0 0.00 0.00 0.00 61 1013.5
20260508003021 12 325 0.0 0.0 0.00 0.00 0.00 55 1013.8
20260508001530 12 302 0.0 0.0 0.00 0.00 0.00 61 1013.7
20260508000031 12 302 0.0 0.0 0.00 0.00 0.00 58 1013.5
20260507234536 13 302 0.0 0.0 0.00 0.00 0.00 53 1013.5
20260507233037 13 261 0.0 0.0 0.00 0.00 0.00 50 1013.3
20260507231556 13 298 0.0 0.0 0.00 0.00 0.00 50 1013.5
20260507230101 13 311 0.0 0.0 0.00 0.00 0.00 49 1013.5
20260507230001 13 317 0.0 0.0 0.00 0.00 0.00 49 1013.5
20260507224509 13 253 0.0 0.0 0.00 0.00 0.00 49 1013.4
20260507223015 13 329 0.0 0.0 0.00 0.00 0.00 49 1013.5
20260507221523 14 144 0.0 1.6 0.00 0.00 0.00 48 1013.6
20260507220020 15 254 0.0 0.0 0.00 0.00 0.00 47 1013.6
20260507214507 13 307 0.0 0.0 0.00 0.00 0.00 47 1013.6
20260507213028 14 299 0.0 1.6 0.00 0.00 0.00 47 1013.7
20260507211519 13 348 4.8 12.9 0.00 0.00 0.00 49 1013.8
20260507210043 13 324 3.2 11.3 0.00 0.00 0.00 49 1013.9
20260507204532 13 328 0.0 6.4 0.00 0.00 0.00 48 1013.9
20260507203040 13 346 4.8 14.5 0.00 0.00 0.00 49 1013.9
20260507201549 13 339 0.0 12.9 0.00 0.00 0.00 49 1013.8
20260507194546 13 338 3.2 16.1 0.00 0.00 0.00 48 1014.0
20260507193110 13 319 1.6 16.1 0.00 0.00 0.00 51 1014.3
20260507191536 13 316 3.2 17.7 0.00 0.00 0.00 50 1014.2
20260507190040 13 326 0.0 16.1 0.00 0.00 0.00 53 1014.4